Onze recentste grote winnaars
€11.390,00Remy230706/10/2019
€12.950,00Mattvw77703/10/2019
€10.882,95totojuventus30/09/2019
€16.294,11Liilith20/08/2019
€10.336,60Marko2116/08/2019
€13.800,00valenti606/08/2019
€10.594,31Nadia020422/07/2019
€27.890,25hepiep04/06/2019
€25.745,00TimDeSutter10/09/2019
€14.750,00Mattvw77704/09/2019
€18.900,00timmy11119/08/2019
€15.355,33Stefaniehans06/08/2019
€10.500,00noxx1416/07/2019
€13.650,00mamanmonange13/07/2019
€12.000,00Apojulien06/07/2019
€10.640,00Apojulien06/07/2019
€18.220,00hepiep29/05/2019
€13.990,00mamanmonange29/05/2019
€10.402,00hepiep28/05/2019
€22.338,00hepiep28/05/2019
€83.838,50hepiep26/05/2019
€13.455,00timmy11125/05/2019
€10.550,00MclarenHonda21/05/2019
€10.890,00MclarenHonda20/05/2019
€10.360,00Stijn3420/05/2019
€23.000,00MclarenHonda18/05/2019
€64.775,00Joris199217/05/2019
€21.685,00Alixexpat07/05/2019
€12.944,59NatGlo03/05/2019
€19.361,50Lucadidi05/04/2019
€14.600,00Lombardino28/03/2019
€27.795,00Jero7721/03/2019
€21.100,00Liedts01227/02/2019
€11.496,20timmy11124/02/2019
€13.825,00abylee22/02/2019
€15.150,00Liedts01219/02/2019
€12.595,00Alixexpat18/02/2019
€12.000,00timmy11109/02/2019
€27.100,00PSG201609/02/2019
€12.500,00Alainbobo06/02/2019
€10.700,00Jannick1905/02/2019
€11.950,00Jipenjanneke04/02/2019
€10.847,50DANCIUGRIGORE03/02/2019
€19.000,00timmy11102/02/2019
€10.043,00virelee30/01/2019
€10.700,00melpis23/01/2019
€11.882,00yarak1960patsy19/01/2019
€27.900,00PSG201614/01/2019
€12.195,00timmy11104/01/2019
€102.089,00timmy11101/01/2019
€14.500,00Anjou1228/12/2018
€13.750,06Jannick1926/12/2018
€22.000,00timmy11122/12/2018
€26.290,00timmy11111/12/2018
€10.640,00timmy11101/12/2018
€10.270,00Lombardino28/11/2018
€14.565,00Meli15819/11/2018
€10.538,00Liesbeth719/11/2018
€33.635,00tauros16/11/2018
€25.090,00tauros15/11/2018
€12.050,00tauros14/11/2018
€14.250,00tauros13/11/2018
€34.104,00tauros12/11/2018
€11.750,00nidugg10/11/2018
Meer dan €2.500
MegaWheels€3.500,00totojuventus13/10 02:12
Infinity Dice€4.400,00Mattvw77712/10 09:37
Infinity Dice€2.500,00Salvatore0812/10 09:12
BlackJack Lux€3.225,00waffle213512/10 08:38
Live European Roulet...€5.450,00Juanito3612/10 06:22
MegaWheels€4.087,00Juanito3612/10 04:07
Infinity Dice€3.728,50Salvatore0812/10 01:18
Infinity Dice€2.900,00Mattvw77711/10 10:10
Pure€8.333,50eyefocus11/10 10:48
Infinity Dice€3.190,00timmy11111/10 10:31
24k€5.435,00Hanzie198210/10 09:17
Red Lotus€2.700,00superwoman0510/10 12:44
BlackJack Lux€5.025,00waffle213509/10 11:24
MegaWheels€3.700,00totojuventus09/10 02:09
BlackJack Lux€4.375,00waffle213509/10 01:49
MegaWheels€2.565,00Kleinevis09/10 01:40
Spirit Sisters€2.500,00Chris765608/10 11:50
Diamond Double Wheel€4.508,50toto05907/10 05:22
BlackJack Lux€3.825,00waffle213507/10 04:09
Infinity Dice€6.000,00Sevina05/10 08:14
Pure€4.900,00Devilke05/10 05:00
Infinity Dice€2.800,00barry1905/10 12:30
Royal Crown€4.585,00ASPNET50105/10 02:27
Spirit Sisters€2.850,00Gucci_199104/10 05:52
MegaWheels€8.700,00totojuventus04/10 10:43
MegaWheels€2.650,00primula04/10 12:40
MegaWheels€3.212,04StinoLapino03/10 11:59
Infinity Dice€3.685,00zimzim02/10 11:48
Always Hot Cubes€2.950,00Dkkns1801/10 11:02
Midnight Wheel€3.899,90laeti0301/10 05:55
MegaWheels€2.500,00totojuventus30/09 01:07
Infinity Dice€3.755,00barry1929/09 10:53
Meer dan €250
MegaWheels€325,00Hakimamigo14/10 05:12
Ancient Secrets€765,75Allstar0614/10 04:58
Infinity Dice€310,00Joe050814/10 04:47
Pure€260,00cormo14/10 01:56
Spirit Sisters€540,00Remy230714/10 01:10
MegaWheels€825,00wittevdk14/10 01:03
Always Hot Cubes€550,00Tytmax14/10 12:58
Infinity Dice€450,50victoria197314/10 12:08
Parasol Beach€500,00Dieterdewulf14/10 10:44
MegaWheels€440,00ISAMARCEL14/10 09:23
Spirit Sisters€400,00Remy230714/10 08:44
Golden Temple€410,00bombadillou14/10 07:35
Infinity Dice€1.397,50Noham2514/10 03:06
Pure€295,00Schatteman14/10 02:36
MegaWheels€350,00najha114/10 01:40
Spin Your Fortune€450,00Dieterstroobants14/10 01:19
Infinity Dice€930,00barry1914/10 12:49
Pure€800,00chatblanc14/10 12:46
Infinity Dice€975,00barry1914/10 12:20
Live Roulette€472,80Youtchi13/10 11:36
Stunning Hot€950,00Scratty13/10 11:28
Infinity Dice€550,00lanlanlou13/10 10:52
Red Lotus€380,00cindy060413/10 10:52
Spin Sorceress€492,45officialmaxisam13/10 10:39
Live European Roulet...€745,00Noham2513/10 10:36
Gold Reels€455,00officialmaxisam13/10 10:34
Infinity Dice€295,00Bellettieri13/10 09:46
Infinity Dice€424,00sultane_201413/10 09:29
Live European Roulet...€902,50Noham2513/10 09:21
BlackJack Lux€250,00waffle213513/10 08:51
MegaWheels€350,00Fan195713/10 08:12
Infinity Dice€495,00barry1913/10 07:44
Infinity Dice€350,00lanlanlou13/10 06:37
Red Lotus€950,40chocOriginal13/10 04:21
Royal Dice HD€524,00Ptitbout13/10 04:20
Spin Your Fortune€300,00Dieterstroobants13/10 04:02
Red Lotus€300,00maho13/10 03:52
Red Lotus€360,00vorsteiner13/10 03:24
MegaWheels€475,00totojuventus13/10 02:43
Open The Pearl€429,75Mianne913/10 02:30
MegaWheels€335,00Fitnessboy4013/10 02:12
Super Wheels Progres...€325,00Miryam13/10 01:01
Infinity Dice€790,00Jacques8613/10 09:47
Spin Your Fortune€350,00Dieterstroobants13/10 09:39
Spin Your Fortune€260,00Dieterstroobants13/10 09:10
Super Lucky 7€300,10Mounir8013/10 05:22
Infinity Dice€340,00Coolen13/10 05:13
Super Lucky 7€355,50Mounir8013/10 04:48
Infinity Dice€700,00Coolen13/10 04:18
Royal Crown€392,00lanlanlou13/10 03:59

Grootste winsten en hot games

De online casinospelen op goldenpalace.be bieden heel wat interessante bonussen en jackpots. Het is dan ook niet verrassend dat onze lijst met winnaars altijd gevuld is met recente grote winsten!

Wil jij ook graag weten welke games momenteel hot zijn? Bekijk dan gewoon de bovenstaande lijst en waag dan zelf je kans met tot €250 bonus voor jouw eerste storting (code GP250)!

MAAK EEN STORTING

 

Goldenpalace.be gebruikt cookies om jouw ervaring op onze gamingsite te verbeteren. Door verder te gaan, geef je hiervoor jouw toestemming.

Ja, ik ga akkoordIk wil eerst meer informatie
adx